Bar Harbor, ME

11:00 AM EST on December 09, 2019 (GMT -0500)
Hancock County-Bar Harbor

Weather History for KBHB - October, 2019

Change the Weather History Date:

Thursday, October 3, 2019

  Actual Average Record
Temperature  
Mean Temperature 41 °F -  
Max Temperature 52 °F 63 °F 75 °F (1971)
Min Temperature 30 °F 46 °F 30 °F (2017)
Degree Days  
Heating Degree Days 24    
Moisture  
Dew Point 34 °F    
Average Humidity 71    
Maximum Humidity 96    
Minimum Humidity 43    
Precipitation  
Precipitation 0.00 in - - ()
Sea Level Pressure  
Sea Level Pressure 30.15 in    
Wind  
Wind Speed 4 mph (NW)    
Max Wind Speed 12 mph    
Max Gust Speed 16 mph    
Visibility 10 miles    
Events Rain    
Averages and records for this station are not official NWS values.
T = Trace of Precipitation, MM = Missing Value Source: NWS Daily Summary

Daily Weather History Graph

Daily Weather History Graph

Search for Another Location

Airport or City:

Astronomy

Oct. 03, 2019 Rise Set
Actual Time 6:33 AM EDT 6:10 PM EDT
Civil Twilight 6:04 AM EDT 6:39 PM EDT
Nautical Twilight 5:30 AM EDT 7:13 PM EDT
Astronomical Twilight 4:56 AM EDT 7:47 PM EDT
Moon 12:12 PM EDT (10/3) 9:35 PM EDT (10/3)
Length of Visible Light 12h 35m
Length of Day
11h 37m
Waxing Crescent, 29% of the Moon is Illuminated
Oct 3
Waxing Crescent
Oct 5
First Quarter
Oct 13
Full
Oct 21
Last Quarter
Oct 27
New

Hourly Weather History & Observations

Time (EDT) Temp. Windchill Dew Point Humidity Pressure Visibility Wind Dir Wind Speed Gust Speed Precip Events Conditions
12:56 AM 39.9 °F 37.8 °F 34.0 °F 79% 30.12 in 10.0 mi North 3.5 mph - N/A   Clear
1:56 AM 37.9 °F 34.4 °F 34.0 °F 86% 30.14 in 10.0 mi NNW 4.6 mph - N/A   Clear
2:56 AM 37.9 °F 35.5 °F 34.0 °F 86% 30.15 in 10.0 mi North 3.5 mph - N/A   Clear
3:56 AM 34.0 °F - 33.1 °F 96% 30.16 in 10.0 mi Calm Calm - N/A   Clear
4:56 AM 34.0 °F - 32.0 °F 92% 30.17 in 10.0 mi Calm Calm - N/A   Clear
5:56 AM 30.9 °F - 30.0 °F 96% 30.18 in 10.0 mi Calm Calm - N/A   Clear
6:56 AM 34.0 °F - 33.1 °F 96% 30.21 in 10.0 mi Calm Calm - N/A   Overcast
7:56 AM 39.9 °F - 35.1 °F 83% 30.24 in 10.0 mi Calm Calm - N/A   Clear
8:56 AM 44.1 °F 39.0 °F 34.0 °F 68% 30.23 in 10.0 mi NNE 9.2 mph - N/A   Clear
9:56 AM 44.1 °F 38.1 °F 30.0 °F 58% 30.23 in 10.0 mi NNE 11.5 mph - N/A   Clear
10:56 AM 46.9 °F - 30.9 °F 54% 30.21 in 10.0 mi North 10.4 mph 16.1 mph N/A   Clear
11:56 AM 48.9 °F - 33.1 °F 54% 30.20 in 10.0 mi Variable 4.6 mph - N/A   Clear
12:56 PM 50.0 °F - 30.9 °F 48% 30.17 in 10.0 mi North 8.1 mph - N/A   Clear
1:56 PM 51.1 °F - 30.9 °F 46% 30.16 in 10.0 mi North 6.9 mph - N/A   Clear
2:56 PM 51.1 °F - 30.9 °F 46% 30.15 in 10.0 mi West 4.6 mph - N/A   Clear
3:56 PM 52.0 °F - 30.0 °F 43% 30.14 in 10.0 mi Calm Calm - N/A   Clear
4:56 PM 50.0 °F - 33.1 °F 52% 30.15 in 10.0 mi Calm Calm - N/A   Clear
5:56 PM 48.0 °F - 37.0 °F 66% 30.12 in 10.0 mi WSW 3.5 mph - N/A   Clear
6:56 PM 46.9 °F - 37.0 °F 68% 30.12 in 10.0 mi SW 5.8 mph - N/A   Clear
7:56 PM 46.9 °F - 39.0 °F 74% 30.13 in 10.0 mi SW 6.9 mph - N/A   Partly Cloudy
8:56 PM 46.9 °F - 39.0 °F 74% 30.11 in 10.0 mi WSW 3.5 mph - N/A   Mostly Cloudy
9:56 PM 46.9 °F - 39.0 °F 74% 30.10 in 10.0 mi SW 5.8 mph - N/A   Overcast
10:56 PM 46.0 °F 44.8 °F 39.9 °F 79% 30.08 in 10.0 mi Variable 3.5 mph - 0.00 in Rain Light Rain
11:56 PM 46.0 °F - 39.9 °F 79% 30.05 in 10.0 mi Calm Calm - 0.00 in   Overcast